Weather History for Cortland County-chase Field, NY

Change the Weather History Date:

Saturday, March 22, 2014

  Actual Average (KBGM) Record (KBGM)
Temperature  
Mean Temperature 33 °F 35 °F  
Max Temperature 42 °F 43 °F 76 °F (2012)
Min Temperature 24 °F 27 °F 7 °F (1988)
Degree Days  
Heating Degree Days 32 30  
Month to date heating degree days 744  
Since 1 July heating degree days 5943  
Cooling Degree Days 0 0  
Month to date cooling degree days 0  
Year to date cooling degree days 0  
Moisture  
Dew Point 27 °F    
Average Humidity 75    
Maximum Humidity 87    
Minimum Humidity 52    
Precipitation  
Precipitation 0.00 in 0.11 in 1.41 in (1977)
Month to date precipitation 2.04  
Year to date precipitation 6.80  
Snow  
Snow 0.00 in 0.40 in 7.70 in (1999)
Month to date snowfall 12.0  
Since 1 July snowfall 75.9  
Snow Depth -    
Sea Level Pressure  
Sea Level Pressure 29.85 in    
Wind  
Wind Speed 7 mph (WNW)    
Max Wind Speed 20 mph    
Max Gust Speed 39 mph    
Visibility 10 miles    
Events Rain    
T = Trace of Precipitation, MM = Missing Value Source: NWS Daily Summary

Daily Weather History Graph

Daily Weather History Graph

Search for Another Location

Airport:

Trip Planner

Search our weather history database for the weather conditions in past years. The results will help you decide how hot, cold, wet, or windy it might be!

Date:

Astronomy

Mar. 22, 2014 Rise Set
Actual Time 7:04 AM EDT 7:19 PM EDT
Civil Twilight 6:36 AM EDT 7:47 PM EDT
Nautical Twilight 6:03 AM EDT 8:20 PM EDT
Astronomical Twilight 5:29 AM EDT 8:54 PM EDT
Moon 12:42 AM EDT (3/22) 10:39 AM EDT (3/22)
Length of Visible Light 13h 11m
Length of Day
12h 14m
Waning Gibbous, 65% of the Moon is Illuminated
Mar 22
Waning Gibbous
Mar 23
Last Quarter
Mar 30
New
Apr 7
First Quarter
Apr 15
Full

Hourly Weather History & Observations

Time (EDT) Temp. Windchill Dew Point Humidity Pressure Visibility Wind Dir Wind Speed Gust Speed Precip Events Conditions
12:15 AM 24.8 °F - 21.2 °F 86% 29.98 in 10.0 mi Calm Calm - N/A   Clear
12:35 AM 24.8 °F 19.1 °F 21.2 °F 86% 29.96 in 10.0 mi NNE 4.6 mph - N/A   Clear
12:55 AM 24.8 °F 20.5 °F 21.2 °F 86% 29.95 in 10.0 mi NNE 3.5 mph - N/A   Clear
1:15 AM 26.6 °F 22.6 °F 23.0 °F 86% 29.93 in 10.0 mi NNE 3.5 mph - N/A   Clear
1:35 AM 26.6 °F 21.2 °F 23.0 °F 86% 29.92 in 10.0 mi NNE 4.6 mph - N/A   Clear
1:55 AM 28.4 °F 24.6 °F 23.0 °F 80% 29.91 in 10.0 mi NNE 3.5 mph - N/A   Clear
2:15 AM 28.4 °F 23.3 °F 23.0 °F 80% 29.89 in 10.0 mi NNE 4.6 mph - N/A   Mostly Cloudy
2:35 AM 30.2 °F 26.7 °F 23.0 °F 75% 29.88 in 10.0 mi North 3.5 mph - N/A   Scattered Clouds
2:55 AM 30.2 °F 23.4 °F 24.8 °F 80% 29.85 in 10.0 mi ENE 6.9 mph - N/A   Overcast
3:15 AM 32.0 °F 27.5 °F 24.8 °F 75% 29.83 in 10.0 mi ENE 4.6 mph - N/A   Overcast
3:35 AM 30.2 °F 25.4 °F 23.0 °F 75% 29.82 in 10.0 mi ENE 4.6 mph - N/A   Overcast
3:55 AM 32.0 °F 24.8 °F 23.0 °F 69% 29.80 in 10.0 mi East 8.1 mph - N/A   Overcast
4:15 AM 33.8 °F 27.7 °F 23.0 °F 65% 29.78 in 10.0 mi East 6.9 mph - N/A   Overcast
4:35 AM 33.8 °F 26.4 °F 23.0 °F 65% 29.77 in 10.0 mi East 9.2 mph - N/A   Overcast
4:55 AM 33.8 °F 28.6 °F 23.0 °F 65% 29.75 in 10.0 mi East 5.8 mph - N/A   Overcast
5:15 AM 33.8 °F 28.6 °F 23.0 °F 65% 29.75 in 10.0 mi East 5.8 mph - N/A   Overcast
5:35 AM 35.6 °F 31.7 °F 21.2 °F 56% 29.73 in 10.0 mi East 4.6 mph - N/A   Overcast
5:55 AM 33.8 °F 27.7 °F 23.0 °F 65% 29.72 in 10.0 mi ENE 6.9 mph - N/A   Overcast
6:15 AM 33.8 °F - 23.0 °F 65% 29.70 in 10.0 mi Calm Calm - N/A   Mostly Cloudy
6:35 AM 37.4 °F 31.4 °F 23.0 °F 56% 29.68 in 10.0 mi South 8.1 mph - N/A   Mostly Cloudy
6:55 AM 37.4 °F 31.4 °F 23.0 °F 56% 29.65 in 10.0 mi SSW 8.1 mph 18.4 mph N/A   Clear
7:15 AM 37.4 °F 31.4 °F 23.0 °F 56% 29.63 in 10.0 mi South 8.1 mph 19.6 mph N/A   Clear
7:35 AM 37.4 °F 30.8 °F 23.0 °F 56% 29.64 in 10.0 mi South 9.2 mph 19.6 mph N/A   Mostly Cloudy
7:55 AM 39.2 °F 31.6 °F 23.0 °F 52% 29.66 in 10.0 mi South 12.7 mph 20.7 mph N/A   Overcast
8:15 AM 39.2 °F 31.6 °F 24.8 °F 56% 29.67 in 10.0 mi WSW 12.7 mph 20.7 mph N/A   Overcast
8:35 AM 39.2 °F 32.0 °F 26.6 °F 61% 29.68 in 10.0 mi SSW 11.5 mph 24.2 mph N/A   Overcast
8:55 AM 37.4 °F 28.9 °F 32.0 °F 81% 29.68 in 10.0 mi SSW 13.8 mph 21.9 mph N/A Rain Light Rain
9:15 AM 37.4 °F 29.8 °F 32.0 °F 81% 29.68 in 10.0 mi SSW 11.5 mph - N/A   Overcast
9:35 AM 37.4 °F 29.8 °F 32.0 °F 81% 29.69 in 10.0 mi SW 11.5 mph 16.1 mph N/A   Overcast
9:55 AM 37.4 °F 30.3 °F 32.0 °F 81% 29.69 in 10.0 mi SW 10.4 mph - N/A   Drizzle
10:15 AM 41.0 °F 34.7 °F 33.8 °F 76% 29.69 in 10.0 mi SSW 10.4 mph - N/A   Overcast
10:35 AM 41.0 °F 34.3 °F 33.8 °F 76% 29.68 in 10.0 mi SW 11.5 mph 19.6 mph N/A   Overcast
10:55 AM 42.8 °F 36.2 °F 33.8 °F 70% 29.69 in 10.0 mi WSW 12.7 mph 20.7 mph N/A   Overcast
11:15 AM 42.8 °F 37.0 °F 35.6 °F 76% 29.71 in 10.0 mi WSW 10.4 mph 21.9 mph N/A   Overcast
11:35 AM 42.8 °F 34.3 °F 33.8 °F 70% 29.72 in 10.0 mi West 19.6 mph 26.5 mph N/A   Overcast
11:55 AM 42.8 °F 35.8 °F 33.8 °F 70% 29.74 in 10.0 mi West 13.8 mph 23.0 mph N/A   Mostly Cloudy
12:15 PM 42.8 °F 35.1 °F 32.0 °F 66% 29.77 in 10.0 mi WNW 16.1 mph 35.7 mph N/A   Mostly Cloudy
12:35 PM 41.0 °F 33.9 °F 33.8 °F 76% 29.78 in 10.0 mi West 12.7 mph 26.5 mph N/A   Mostly Cloudy
12:55 PM 41.0 °F 32.2 °F 32.0 °F 70% 29.80 in 10.0 mi West 18.4 mph 26.5 mph N/A   Mostly Cloudy
1:15 PM 37.4 °F 28.2 °F 30.2 °F 75% 29.83 in 10.0 mi WNW 16.1 mph 39.1 mph N/A   Overcast
1:35 PM 35.6 °F 26.2 °F 30.2 °F 81% 29.83 in 10.0 mi WNW 15.0 mph 27.6 mph N/A   Overcast
1:55 PM 35.6 °F 25.2 °F 30.2 °F 81% 29.85 in 10.0 mi West 18.4 mph 26.5 mph N/A   Overcast
2:15 PM 35.6 °F 27.1 °F 30.2 °F 81% 29.86 in 10.0 mi West 12.7 mph 26.5 mph N/A   Overcast
2:35 PM 35.6 °F 27.1 °F 30.2 °F 81% 29.87 in 10.0 mi WNW 12.7 mph 26.5 mph N/A   Overcast
2:55 PM 35.6 °F 29.2 °F 30.2 °F 81% 29.89 in 10.0 mi WNW 8.1 mph 19.6 mph N/A   Overcast
3:15 PM 35.6 °F 27.5 °F 30.2 °F 81% 29.90 in 10.0 mi West 11.5 mph 20.7 mph N/A   Overcast
3:35 PM 35.6 °F 27.5 °F 30.2 °F 81% 29.90 in 10.0 mi West 11.5 mph 18.4 mph N/A   Overcast
3:55 PM 35.6 °F 28.0 °F 30.2 °F 81% 29.91 in 10.0 mi WNW 10.4 mph 18.4 mph N/A   Overcast
4:15 PM 35.6 °F 28.0 °F 30.2 °F 81% 29.92 in 10.0 mi WNW 10.4 mph 18.4 mph N/A   Overcast
4:35 PM 35.6 °F 29.2 °F 30.2 °F 81% 29.92 in 10.0 mi WNW 8.1 mph 19.6 mph N/A   Overcast
4:55 PM 35.6 °F 28.0 °F 30.2 °F 81% 29.92 in 10.0 mi WNW 10.4 mph 17.3 mph N/A   Overcast
5:15 PM 35.6 °F 27.1 °F 28.4 °F 75% 29.94 in 10.0 mi West 12.7 mph 16.1 mph N/A   Overcast
5:35 PM 35.6 °F 30.7 °F 30.2 °F 81% 29.95 in 10.0 mi WNW 5.8 mph 16.1 mph N/A   Overcast
5:55 PM 35.6 °F 28.6 °F 28.4 °F 75% 29.95 in 10.0 mi WNW 9.2 mph 18.4 mph N/A   Overcast
6:15 PM 35.6 °F 29.9 °F 28.4 °F 75% 29.96 in 10.0 mi WNW 6.9 mph - N/A   Mostly Cloudy
6:35 PM 35.6 °F 32.8 °F 28.4 °F 75% 29.97 in 10.0 mi WNW 3.5 mph - N/A   Overcast
6:55 PM 35.6 °F 31.7 °F 28.4 °F 75% 29.98 in 10.0 mi WNW 4.6 mph - N/A   Overcast
7:15 PM 33.8 °F 27.7 °F 28.4 °F 81% 29.98 in 10.0 mi NW 6.9 mph - N/A   Overcast
7:35 PM 33.8 °F 28.6 °F 28.4 °F 81% 29.98 in 10.0 mi WNW 5.8 mph - N/A   Overcast
7:55 PM 33.8 °F 28.6 °F 28.4 °F 81% 30.00 in 10.0 mi NW 5.8 mph - N/A   Overcast
8:15 PM 33.8 °F 25.8 °F 26.6 °F 75% 30.00 in 10.0 mi WNW 10.4 mph 17.3 mph N/A   Overcast
8:35 PM 32.0 °F 27.5 °F 26.6 °F 80% 30.02 in 10.0 mi WNW 4.6 mph - N/A   Overcast
8:55 PM 32.0 °F 27.5 °F 26.6 °F 80% 30.03 in 10.0 mi WNW 4.6 mph - N/A   Overcast
9:15 PM 32.0 °F 25.6 °F 26.6 °F 80% 30.02 in 10.0 mi WNW 6.9 mph - N/A   Overcast
9:35 PM 32.0 °F 26.4 °F 28.4 °F 87% 30.03 in 10.0 mi WNW 5.8 mph - N/A   Overcast
9:55 PM 32.0 °F 25.6 °F 26.6 °F 80% 30.03 in 10.0 mi WNW 6.9 mph 16.1 mph N/A   Overcast
10:15 PM 32.0 °F 25.6 °F 26.6 °F 80% 30.03 in 10.0 mi West 6.9 mph - N/A   Overcast
10:35 PM 32.0 °F 25.6 °F 26.6 °F 80% 30.04 in 10.0 mi West 6.9 mph - N/A   Overcast
10:55 PM 32.0 °F 25.6 °F 26.6 °F 80% 30.04 in 10.0 mi West 6.9 mph - N/A   Overcast
11:15 PM 32.0 °F 24.2 °F 26.6 °F 80% 30.03 in 10.0 mi West 9.2 mph - N/A   Mostly Cloudy
11:35 PM 32.0 °F 26.4 °F 26.6 °F 80% 30.03 in 10.0 mi West 5.8 mph - N/A   Scattered Clouds
11:55 PM 32.0 °F 25.6 °F 24.8 °F 75% 30.03 in 10.0 mi West 6.9 mph - N/A   Clear